Des Moines, IA

7:42 AM CDT on August 27, 2016 (GMT -0500)
Des Moines International

Weather History for KDSM - April, 2014

Change the Weather History Date:

Friday, April 11, 2014

  Actual Average Record
Temperature  
Mean Temperature 58 °F 50 °F  
Max Temperature 78 °F 61 °F 87 °F (1930)
Min Temperature 38 °F 39 °F 20 °F (1940)
Degree Days  
Heating Degree Days 7 15  
Month to date heating degree days 193 189  
Since 1 July heating degree days 6430 5816  
Cooling Degree Days 0 0  
Month to date cooling degree days 0 0  
Year to date cooling degree days 0 1  
Growing Degree Days 8 (Base 50)    
Moisture  
Dew Point 26 °F    
Average Humidity 34    
Maximum Humidity 54    
Minimum Humidity 13    
Precipitation  
Precipitation 0.00 in 0.11 in 2.00 in (2005)
Month to date precipitation 0.22 1.15  
Year to date precipitation 3.19 5.73  
Snow  
Snow 0.00 in 0.10 in 4.10 in (2007)
Month to date snowfall 0.1 1.0  
Since 1 July snowfall 47.6 34.5  
Snow Depth 0.00 in    
Sea Level Pressure  
Sea Level Pressure 29.97 in    
Wind  
Wind Speed 10 mph (SSW)    
Max Wind Speed 22 mph    
Max Gust Speed 30 mph    
Visibility 10 miles    
Events      
T = Trace of Precipitation, MM = Missing Value Source: NWS Daily Summary

Daily Weather History Graph

Daily Weather History Graph

Search for Another Location

Airport or City:

Trip Planner

Search our weather history database for the weather conditions in past years. The results will help you decide how hot, cold, wet, or windy it might be!

Date:

Astronomy

Apr. 11, 2014 Rise Set
Actual Time 6:41 AM CDT 7:50 PM CDT
Civil Twilight 6:12 AM CDT 8:19 PM CDT
Nautical Twilight 5:38 AM CDT 8:53 PM CDT
Astronomical Twilight 5:02 AM CDT 9:29 PM CDT
Moon 4:29 PM CDT (4/11) 4:39 AM CDT (4/11)
Length of Visible Light 14h 06m
Length of Day
13h 09m
Waxing Gibbous, 87% of the Moon is Illuminated
Apr 11
Waxing Gibbous
Apr 15
Full
Apr 22
Last Quarter
Apr 29
New
May 6
First Quarter

Hourly Weather History & Observations

Time (CDT) Temp. Windchill Dew Point Humidity Pressure Visibility Wind Dir Wind Speed Gust Speed Precip Events Conditions
12:54 AM 51.1 °F - 25.0 °F 36% 30.00 in 10.0 mi NE 5.8 mph - N/A   Partly Cloudy
1:54 AM 52.0 °F - 25.0 °F 35% 30.02 in 10.0 mi ESE 4.6 mph - N/A   Partly Cloudy
2:54 AM 48.9 °F - 26.1 °F 41% 30.01 in 10.0 mi SE 4.6 mph - N/A   Scattered Clouds
3:54 AM 42.1 °F 37.1 °F 27.0 °F 55% 30.01 in 10.0 mi South 8.1 mph - N/A   Mostly Cloudy
4:54 AM 41.0 °F 37.1 °F 24.1 °F 51% 30.01 in 10.0 mi South 5.8 mph - N/A   Partly Cloudy
5:54 AM 39.0 °F 33.4 °F 25.0 °F 57% 30.01 in 10.0 mi South 8.1 mph - N/A   Clear
6:54 AM 39.0 °F 34.8 °F 25.0 °F 57% 30.02 in 10.0 mi South 5.8 mph - N/A   Partly Cloudy
7:54 AM 42.1 °F 36.6 °F 26.1 °F 53% 30.04 in 10.0 mi South 9.2 mph - N/A   Scattered Clouds
8:54 AM 50.0 °F - 26.1 °F 39% 30.05 in 10.0 mi SSW 5.8 mph - N/A   Scattered Clouds
9:54 AM 61.0 °F - 24.1 °F 24% 30.04 in 10.0 mi SW 13.8 mph - N/A   Mostly Cloudy
10:54 AM 66.9 °F - 21.9 °F 18% 30.03 in 10.0 mi SW 16.1 mph - N/A   Scattered Clouds
11:54 AM 70.0 °F - 21.9 °F 16% 30.02 in 10.0 mi SW 18.4 mph - N/A   Scattered Clouds
12:54 PM 73.9 °F - 26.1 °F 17% 30.00 in 10.0 mi West 13.8 mph 21.9 mph N/A   Mostly Cloudy
1:54 PM 75.0 °F - 27.0 °F 17% 29.98 in 10.0 mi West 13.8 mph 27.6 mph N/A   Mostly Cloudy
2:54 PM 77.0 °F - 25.0 °F 15% 29.95 in 10.0 mi WNW 12.7 mph - N/A   Mostly Cloudy
3:54 PM 77.0 °F - 24.1 °F 14% 29.93 in 10.0 mi West 12.7 mph 17.3 mph N/A   Partly Cloudy
4:54 PM 75.9 °F - 21.9 °F 13% 29.92 in 10.0 mi WSW 8.1 mph - N/A   Mostly Cloudy
5:54 PM 75.0 °F - 23.0 °F 14% 29.91 in 10.0 mi WSW 6.9 mph - N/A   Overcast
6:54 PM 73.9 °F - 25.0 °F 16% 29.90 in 10.0 mi SW 8.1 mph - N/A   Overcast
7:54 PM 70.0 °F - 25.0 °F 18% 29.90 in 10.0 mi SSW 5.8 mph - N/A   Mostly Cloudy
8:54 PM 64.9 °F - 27.0 °F 24% 29.91 in 10.0 mi South 6.9 mph - N/A   Scattered Clouds
9:54 PM 61.0 °F - 28.9 °F 30% 29.91 in 10.0 mi South 8.1 mph - N/A   Partly Cloudy
10:54 PM 61.0 °F - 32.0 °F 34% 29.90 in 10.0 mi South 5.8 mph - N/A   Overcast
11:54 PM 62.1 °F - 32.0 °F 32% 29.90 in 10.0 mi South 8.1 mph - N/A   Overcast